Weather History for Kankakee, IL

Change the Weather History Date:

Sunday, February 26, 2012

  Actual Average Record
Temperature  
Mean Temperature 36 °F -  
Max Temperature 52 °F 39 °F 63 °F (1976)
Min Temperature 21 °F 20 °F 2 °F (1980)
Degree Days  
Heating Degree Days 28    
Moisture  
Dew Point 23 °F    
Average Humidity 62    
Maximum Humidity 86    
Minimum Humidity 37    
Precipitation  
Precipitation 0.00 in - - ()
Sea Level Pressure  
Sea Level Pressure 30.18 in    
Wind  
Wind Speed 12 mph (SSE)    
Max Wind Speed 30 mph    
Max Gust Speed 41 mph    
Visibility 10 miles    
Events      
Averages and records for this station are not official NWS values.
T = Trace of Precipitation, MM = Missing Value Source: NWS Daily Summary

Daily Weather History Graph

Daily Weather History Graph

Search for Another Location

Airport:

Trip Planner

Search our weather history database for the weather conditions in past years. The results will help you decide how hot, cold, wet, or windy it might be!

Date:

Astronomy

Feb. 26, 2012 Rise Set
Actual Time 6:30 AM CST 5:38 PM CST
Civil Twilight 6:03 AM CST 6:06 PM CST
Nautical Twilight 5:31 AM CST 6:38 PM CST
Astronomical Twilight 4:59 AM CST 7:09 PM CST
Moon 8:22 AM CST (2/26) 10:39 PM CST (2/26)
Length of Visible Light 12h 02m
Length of Day
11h 07m
Waxing Crescent, 21% of the Moon is Illuminated
Feb 26
Waxing Crescent
Feb 29
First Quarter
Mar 8
Full
Mar 14
Last Quarter
Mar 22
New

Hourly Weather History & Observations

Time (CST) Temp. Windchill Dew Point Humidity Pressure Visibility Wind Dir Wind Speed Gust Speed Precip Events Conditions
12:15 AM 21.7 °F 15.5 °F 17.1 °F 82% 30.31 in 10.0 mi SE 4.6 mph - N/A   Clear
12:35 AM 22.1 °F 13.7 °F 17.2 °F 82% 30.30 in 10.0 mi SE 6.9 mph - N/A   Clear
12:55 AM 21.7 °F 14.3 °F 16.5 °F 80% 30.31 in 10.0 mi SSE 5.8 mph - N/A   Clear
1:15 AM 21.6 °F 14.0 °F 16.7 °F 82% 30.32 in 10.0 mi SE 5.8 mph - N/A   Clear
1:35 AM 22.6 °F 15.3 °F 16.9 °F 79% 30.32 in 10.0 mi SE 5.8 mph - N/A   Clear
1:55 AM 21.2 °F 13.6 °F 17.6 °F 86% 30.31 in 10.0 mi ESE 5.8 mph - N/A   Clear
2:15 AM 21.4 °F 15.1 °F 17.2 °F 84% 30.31 in 10.0 mi SE 4.6 mph - N/A   Clear
2:35 AM 21.2 °F 13.6 °F 17.6 °F 86% 30.30 in 10.0 mi ESE 5.8 mph - N/A   Clear
2:55 AM 21.2 °F 14.9 °F 17.6 °F 86% 30.30 in 10.0 mi SE 4.6 mph - N/A   Clear
3:15 AM 21.2 °F 14.9 °F 17.6 °F 86% 30.31 in 10.0 mi SE 4.6 mph - N/A   Clear
3:35 AM 22.5 °F 15.1 °F 17.6 °F 82% 30.32 in 10.0 mi SE 5.8 mph - N/A   Clear
3:55 AM 23.0 °F 13.9 °F 18.0 °F 81% 30.31 in 10.0 mi SE 8.1 mph - N/A   Clear
4:15 AM 22.6 °F 12.6 °F 18.1 °F 83% 30.29 in 10.0 mi SE 9.2 mph - N/A   Clear
4:35 AM 22.1 °F 12.8 °F 18.0 °F 84% 30.29 in 10.0 mi SE 8.1 mph - N/A   Clear
4:55 AM 22.5 °F 13.2 °F 18.1 °F 83% 30.29 in 10.0 mi SE 8.1 mph - N/A   Clear
5:15 AM 23.2 °F 12.0 °F 18.3 °F 82% 30.28 in 10.0 mi SE 11.5 mph - N/A   Clear
5:35 AM 23.4 °F 12.8 °F 18.3 °F 81% 30.28 in 10.0 mi SE 10.4 mph - N/A   Clear
5:55 AM 23.5 °F 12.4 °F 18.3 °F 80% 30.26 in 10.0 mi ESE 11.5 mph - N/A   Clear
6:15 AM 23.9 °F 13.5 °F 18.5 °F 80% 30.27 in 10.0 mi SE 10.4 mph - N/A   Clear
6:35 AM 24.8 °F 14.6 °F 18.5 °F 77% 30.26 in 10.0 mi SE 10.4 mph - N/A   Clear
6:55 AM 24.8 °F 14.6 °F 19.0 °F 79% 30.26 in 10.0 mi SE 10.4 mph - N/A   Clear
7:15 AM 26.4 °F 15.5 °F 19.8 °F 76% 30.26 in 10.0 mi SE 12.7 mph - N/A   Clear
7:35 AM 27.5 °F 17.4 °F 20.3 °F 74% 30.25 in 10.0 mi SE 11.5 mph 18.4 mph N/A   Clear
7:55 AM 29.3 °F 17.7 °F 21.0 °F 71% 30.25 in 10.0 mi SE 16.1 mph 21.9 mph N/A   Clear
8:15 AM 30.2 °F 18.9 °F 21.2 °F 69% 30.23 in 10.0 mi SE 16.1 mph 21.9 mph N/A   Clear
8:35 AM 32.0 °F 20.5 °F 23.0 °F 69% 30.22 in 10.0 mi SE 18.4 mph 24.2 mph N/A   Clear
8:55 AM 32.0 °F 20.8 °F 22.6 °F 68% 30.21 in 10.0 mi SSE 17.3 mph 27.6 mph N/A   Clear
9:15 AM 34.0 °F 23.0 °F 23.0 °F 64% 30.21 in 10.0 mi SSE 18.4 mph 23.0 mph N/A   Clear
9:35 AM 36.0 °F 25.6 °F 22.8 °F 59% 30.20 in 10.0 mi SSE 18.4 mph 25.3 mph N/A   Clear
9:55 AM 37.4 °F 27.5 °F 23.0 °F 56% 30.19 in 10.0 mi SSE 18.4 mph 26.5 mph N/A   Clear
10:15 AM 38.7 °F 28.8 °F 23.4 °F 54% 30.18 in 10.0 mi South 19.6 mph 27.6 mph N/A   Clear
10:35 AM 40.1 °F 31.6 °F 23.7 °F 52% 30.17 in 10.0 mi SSE 16.1 mph 29.9 mph N/A   Clear
10:55 AM 41.9 °F 33.4 °F 23.9 °F 49% 30.16 in 10.0 mi SSE 18.4 mph 25.3 mph N/A   Clear
11:15 AM 43.2 °F 34.7 °F 24.6 °F 48% 30.15 in 10.0 mi SSE 19.6 mph 32.2 mph N/A   Clear
11:35 AM 44.6 °F 36.4 °F 24.8 °F 46% 30.14 in 10.0 mi South 20.7 mph 33.4 mph N/A   Clear
11:55 AM 46.0 °F 38.0 °F 25.3 °F 44% 30.12 in 10.0 mi SSE 21.9 mph 33.4 mph N/A   Clear
12:15 PM 46.6 °F - 25.2 °F 43% 30.10 in 10.0 mi South 27.6 mph 34.5 mph N/A   Clear
12:35 PM 47.3 °F - 25.5 °F 43% 30.08 in 10.0 mi South 26.5 mph 32.2 mph N/A   Clear
12:55 PM 48.6 °F - 26.2 °F 42% 30.07 in 10.0 mi South 26.5 mph 32.2 mph N/A   Clear
1:15 PM 49.3 °F - 26.2 °F 41% 30.07 in 10.0 mi South 29.9 mph 35.7 mph N/A   Clear
1:35 PM 50.4 °F - 27.0 °F 40% 30.06 in 10.0 mi South 21.9 mph 31.1 mph N/A   Clear
1:55 PM 50.9 °F - 26.6 °F 39% 30.02 in 10.0 mi South 27.6 mph 33.4 mph N/A   Clear
2:15 PM 50.7 °F - 26.4 °F 39% 30.02 in 10.0 mi South 26.5 mph 41.4 mph N/A   Clear
2:35 PM 51.3 °F - 27.1 °F 39% 30.03 in 10.0 mi South 25.3 mph 33.4 mph N/A   Clear
2:55 PM 52.0 °F - 27.1 °F 38% 30.04 in 10.0 mi South 23.0 mph 33.4 mph N/A   Clear
3:15 PM 52.0 °F - 27.3 °F 39% 30.03 in 10.0 mi South 26.5 mph 35.7 mph N/A   Clear
3:35 PM 51.8 °F - 27.9 °F 40% 30.03 in 10.0 mi South 24.2 mph 31.1 mph N/A   Clear
3:55 PM 52.7 °F - 28.8 °F 40% 30.03 in 10.0 mi South 19.6 mph 26.5 mph N/A   Clear
4:15 PM 52.3 °F - 26.8 °F 37% 30.03 in 10.0 mi South 20.7 mph 29.9 mph N/A   Clear
4:35 PM 51.4 °F - 28.2 °F 41% 30.02 in 10.0 mi South 18.4 mph 28.8 mph N/A   Clear
4:55 PM 50.4 °F - 28.4 °F 43% 30.02 in 10.0 mi South 20.7 mph 27.6 mph N/A   Clear
5:15 PM 48.6 °F - 29.3 °F 47% 30.03 in 10.0 mi South 15.0 mph 20.7 mph N/A   Clear
5:35 PM 46.8 °F - 29.3 °F 51% 30.04 in 10.0 mi South 12.7 mph - N/A   Clear
5:55 PM 46.0 °F 40.2 °F 29.5 °F 52% 30.04 in 10.0 mi South 12.7 mph - N/A   Clear
6:15 PM 45.1 °F 39.5 °F 29.7 °F 55% 30.04 in 10.0 mi South 11.5 mph 18.4 mph N/A   Clear
6:35 PM 44.2 °F 38.0 °F 29.8 °F 57% 30.05 in 10.0 mi South 12.7 mph - N/A   Clear
6:55 PM 44.4 °F 37.2 °F 29.8 °F 57% 30.05 in 10.0 mi South 16.1 mph - N/A   Clear
7:15 PM 43.7 °F 36.9 °F 29.7 °F 58% 30.04 in 10.0 mi South 13.8 mph 20.7 mph N/A   Clear
7:35 PM 43.2 °F 35.9 °F 29.3 °F 58% 30.04 in 10.0 mi South 15.0 mph 20.7 mph N/A   Clear
7:55 PM 43.0 °F 35.7 °F 29.3 °F 59% 30.04 in 10.0 mi South 15.0 mph - N/A   Clear
8:15 PM 41.9 °F 34.6 °F 29.1 °F 61% 30.04 in 10.0 mi South 13.8 mph - N/A   Clear
8:35 PM 40.6 °F 33.8 °F 29.3 °F 64% 30.05 in 10.0 mi South 11.5 mph - N/A   Clear
8:55 PM 40.1 °F 32.7 °F 29.3 °F 65% 30.05 in 10.0 mi South 12.7 mph 17.3 mph N/A   Clear
9:15 PM 40.3 °F 32.2 °F 29.3 °F 65% 30.05 in 10.0 mi South 15.0 mph - N/A   Clear
9:35 PM 39.7 °F 31.2 °F 29.3 °F 66% 30.05 in 10.0 mi South 16.1 mph 21.9 mph N/A   Clear
9:55 PM 39.4 °F 30.7 °F 29.3 °F 67% 30.05 in 10.0 mi South 16.1 mph - N/A   Clear
10:15 PM 39.4 °F 31.4 °F 29.3 °F 67% 30.06 in 10.0 mi South 13.8 mph - N/A   Clear
10:35 PM 39.4 °F 31.4 °F 29.3 °F 67% 30.06 in 10.0 mi South 13.8 mph - N/A   Clear
10:55 PM 39.2 °F 29.3 °F 30.2 °F 70% 30.11 in 10.0 mi West 20.7 mph 31.1 mph N/A   Scattered Clouds
11:15 PM 39.6 °F 33.0 °F 30.2 °F 69% 30.09 in 10.0 mi SW 10.4 mph - N/A   Overcast
11:35 PM 39.2 °F 33.0 °F 30.2 °F 70% 30.11 in 10.0 mi WSW 9.2 mph - N/A   Overcast
11:55 PM 39.4 °F 33.8 °F 30.6 °F 71% 30.11 in 10.0 mi West 8.1 mph - N/A   Overcast